This is the latest recevied weather packets stored in our database for station/object ON7SD-5. If no packets are shown the sender has not sent any weather packets the latest 1 day(s).
| Time | Temp. | Humidity | Pressure | Rain* | Wind** | Luminosity | Snow |
|---|---|---|---|---|---|---|---|
| 1778010126 | 12.78° C | 75% | 1008.1 hPa | 0 mm | 1.34 m/s, 30° | 0 W/m² | - |
| 1778009826 | 12.78° C | 75% | 1008 hPa | 0 mm | 1.34 m/s, 20° | 0 W/m² | - |
| 1778009526 | 12.78° C | 75% | 1008 hPa | 0 mm | 1.34 m/s, 33° | 0 W/m² | - |
| 1778009226 | 12.78° C | 75% | 1007.9 hPa | 0 mm | 1.34 m/s, 18° | 0 W/m² | - |
| 1778008926 | 12.78° C | 75% | 1007.9 hPa | 0 mm | 1.34 m/s, 34° | 0 W/m² | - |
| 1778008626 | 12.78° C | 75% | 1007.9 hPa | 0 mm | 1.34 m/s, 31° | 5 W/m² | - |
| 1778008326 | 13.33° C | 74% | 1007.9 hPa | 0 mm | 1.34 m/s, 13° | 0 W/m² | - |
| 1778008026 | 13.33° C | 74% | 1007.9 hPa | 0 mm | 1.34 m/s, 24° | 5 W/m² | - |
| 1778007726 | 13.33° C | 74% | 1007.9 hPa | 0 mm | 1.34 m/s, 21° | 7 W/m² | - |
| 1778007426 | 13.33° C | 74% | 1007.8 hPa | 0 mm | 1.34 m/s, 40° | 11 W/m² | - |
| 1778007126 | 13.33° C | 73% | 1007.8 hPa | 0 mm | 1.34 m/s, 12° | 14 W/m² | - |
| 1778006826 | 13.33° C | 73% | 1007.8 hPa | 0 mm | 1.34 m/s, 8° | 18 W/m² | - |
| 1778006526 | 13.33° C | 73% | 1007.8 hPa | 0 mm | 1.34 m/s, 10° | 21 W/m² | - |
| 1778006226 | 13.89° C | 73% | 1007.7 hPa | 0 mm | 0.89 m/s, 19° | 28 W/m² | - |
| 1778005926 | 13.89° C | 73% | 1007.7 hPa | 0 mm | 1.34 m/s, 65° | 33 W/m² | - |
| 1778005626 | 13.89° C | 72% | 1007.7 hPa | 0 mm | 0.89 m/s, 16° | 40 W/m² | - |
| 1778005326 | 13.89° C | 72% | 1007.8 hPa | 0 mm | 0.89 m/s, 27° | 47 W/m² | - |
| 1778005026 | 14.44° C | 72% | 1007.8 hPa | 0 mm | 0.45 m/s, 77° | 56 W/m² | - |
| 1778004726 | 14.44° C | 72% | 1007.7 hPa | 0 mm | 0.89 m/s, 78° | 58 W/m² | - |
| 1778004426 | 14.44° C | 71% | 1007.7 hPa | 0 mm | 1.34 m/s, 78° | 49 W/m² | - |
| 1778004126 | 14.44° C | 71% | 1007.8 hPa | 0 mm | 1.34 m/s, 13° | 58 W/m² | - |
| 1778003826 | 14.44° C | 70% | 1007.8 hPa | 0 mm | 1.79 m/s, 1° | 69 W/m² | - |
| 1778003526 | 14.44° C | 70% | 1007.8 hPa | 0 mm | 1.34 m/s, 41° | 81 W/m² | - |
| 1778003226 | 15° C | 70% | 1007.8 hPa | 0 mm | 1.34 m/s, 18° | 98 W/m² | - |
| 1778002926 | 15° C | 70% | 1007.8 hPa | 0 mm | 0.89 m/s, 9° | 109 W/m² | - |
* Rain latest hour (hover to see other rain measurements)
** Current wind speed in m/s (hover to see current wind gust speed)